#datetime,building,power
2022-08-15T06:02:00,75s,3.61
2022-08-15T06:03:00,75s,3.43
2022-08-15T06:04:00,75s,3.12
2022-08-15T06:05:00,75s,3.07
2022-08-15T06:06:00,75s,3.06
2022-08-15T06:07:00,75s,3.10
2022-08-15T06:08:00,75s,3.48
2022-08-15T06:09:00,75s,3.30
2022-08-15T06:10:00,75s,3.30
2022-08-15T06:11:00,75s,3.42
2022-08-15T06:12:00,75s,2.83
2022-08-15T06:13:00,75s,2.78
2022-08-15T06:14:00,75s,2.70
2022-08-15T06:15:00,75s,2.71
2022-08-15T06:16:00,75s,2.71
2022-08-15T06:17:00,75s,2.79
2022-08-15T06:18:00,75s,2.89
2022-08-15T06:19:00,75s,3.08
2022-08-15T06:20:00,75s,3.43
2022-08-15T06:21:00,75s,3.24
2022-08-15T06:22:00,75s,3.20
2022-08-15T06:23:00,75s,3.14
2022-08-15T06:24:00,75s,3.15
2022-08-15T06:25:00,75s,3.15
2022-08-15T06:26:00,75s,3.28
2022-08-15T06:27:00,75s,3.29
2022-08-15T06:28:00,75s,3.26
2022-08-15T06:29:00,75s,3.16
2022-08-15T06:30:00,75s,3.18
2022-08-15T06:31:00,75s,3.20
2022-08-15T06:32:00,75s,3.23
2022-08-15T06:33:00,75s,3.23
2022-08-15T06:34:00,75s,3.31
2022-08-15T06:35:00,75s,3.23
2022-08-15T06:36:00,75s,3.23
2022-08-15T06:37:00,75s,3.15
2022-08-15T06:38:00,75s,3.14
2022-08-15T06:39:00,75s,3.24
2022-08-15T06:40:00,75s,3.25
2022-08-15T06:41:00,75s,3.43
2022-08-15T06:42:00,75s,3.25
2022-08-15T06:43:00,75s,3.20
2022-08-15T06:44:00,75s,2.93
2022-08-15T06:45:00,75s,2.88
2022-08-15T06:46:00,75s,2.84
2022-08-15T06:47:00,75s,2.79
2022-08-15T06:48:00,75s,2.80
2022-08-15T06:49:00,75s,2.84
2022-08-15T06:50:00,75s,2.84
2022-08-15T06:51:00,75s,3.24
2022-08-15T06:52:00,75s,2.83
2022-08-15T06:53:00,75s,2.76
2022-08-15T06:54:00,75s,2.93
2022-08-15T06:55:00,75s,3.06
2022-08-15T06:56:00,75s,3.15
2022-08-15T06:57:00,75s,3.18
2022-08-15T06:58:00,75s,3.13
2022-08-15T06:59:00,75s,3.15
2022-08-15T07:00:00,75s,3.02
2022-08-15T07:01:00,75s,2.99
2022-08-15T07:02:00,75s,3.10
2022-08-15T07:03:00,75s,3.09
2022-08-15T07:04:00,75s,3.13
2022-08-15T07:05:00,75s,3.06
2022-08-15T07:06:00,75s,2.97
2022-08-15T07:07:00,75s,3.04
2022-08-15T07:08:00,75s,3.02
2022-08-15T07:09:00,75s,2.98
2022-08-15T07:10:00,75s,3.02
2022-08-15T07:11:00,75s,2.98
2022-08-15T07:12:00,75s,3.06
2022-08-15T07:13:00,75s,3.10
2022-08-15T07:14:00,75s,3.13
2022-08-15T07:15:00,75s,3.07
2022-08-15T07:16:00,75s,3.05
2022-08-15T07:17:00,75s,3.36
2022-08-15T07:18:00,75s,3.01
2022-08-15T07:19:00,75s,3.00
2022-08-15T07:20:00,75s,3.36
2022-08-15T07:21:00,75s,2.87
2022-08-15T07:22:00,75s,2.87
2022-08-15T07:23:00,75s,2.84
2022-08-15T07:24:00,75s,2.81
2022-08-15T07:25:00,75s,2.93
2022-08-15T07:26:00,75s,2.96
2022-08-15T07:27:00,75s,2.95
2022-08-15T07:28:00,75s,2.93
2022-08-15T07:29:00,75s,2.93
2022-08-15T07:30:00,75s,2.68
2022-08-15T07:31:00,75s,2.71
2022-08-15T07:32:00,75s,2.71
2022-08-15T07:33:00,75s,2.90
2022-08-15T07:34:00,75s,2.60
2022-08-15T07:35:00,75s,2.58
2022-08-15T07:36:00,75s,2.58
2022-08-15T07:37:00,75s,2.56
2022-08-15T07:38:00,75s,2.65
2022-08-15T07:39:00,75s,2.65
2022-08-15T07:40:00,75s,2.74
2022-08-15T07:41:00,75s,2.62
2022-08-15T07:42:00,75s,2.61
2022-08-15T07:43:00,75s,2.61
2022-08-15T07:44:00,75s,2.59
2022-08-15T07:45:00,75s,2.51
2022-08-15T07:46:00,75s,2.49
2022-08-15T07:47:00,75s,2.56
2022-08-15T07:48:00,75s,3.07
2022-08-15T07:49:00,75s,2.65
2022-08-15T07:50:00,75s,2.62
2022-08-15T07:51:00,75s,2.59
2022-08-15T07:52:00,75s,2.47
2022-08-15T07:53:00,75s,2.46
2022-08-15T07:54:00,75s,2.47
2022-08-15T07:55:00,75s,2.47
2022-08-15T07:56:00,75s,2.88
2022-08-15T07:57:00,75s,2.67
2022-08-15T07:58:00,75s,2.63
2022-08-15T07:59:00,75s,2.62
2022-08-15T08:00:00,75s,2.98
2022-08-15T08:01:00,75s,2.65
2022-08-15T08:02:00,75s,2.77
2022-08-15T08:03:00,75s,2.69
2022-08-15T08:04:00,75s,2.64
2022-08-15T08:05:00,75s,2.59
2022-08-15T08:06:00,75s,2.62
2022-08-15T08:07:00,75s,2.73
2022-08-15T08:08:00,75s,2.75
2022-08-15T08:09:00,75s,2.96
2022-08-15T08:10:00,75s,2.72
2022-08-15T08:11:00,75s,2.82
2022-08-15T08:12:00,75s,2.83
2022-08-15T08:13:00,75s,2.89
2022-08-15T08:14:00,75s,2.89
2022-08-15T08:15:00,75s,2.80
2022-08-15T08:16:00,75s,2.65
2022-08-15T08:17:00,75s,2.64
2022-08-15T08:18:00,75s,2.55
2022-08-15T08:19:00,75s,2.54
2022-08-15T08:20:00,75s,2.49
2022-08-15T08:21:00,75s,2.81
2022-08-15T08:22:00,75s,2.12
2022-08-15T08:23:00,75s,2.11
2022-08-15T08:24:00,75s,2.12
2022-08-15T08:25:00,75s,2.12
2022-08-15T08:26:00,75s,2.21
2022-08-15T08:27:00,75s,2.35
2022-08-15T08:28:00,75s,2.29
2022-08-15T08:29:00,75s,2.37
2022-08-15T08:30:00,75s,2.33
2022-08-15T08:31:00,75s,2.27
2022-08-15T08:32:00,75s,2.17
2022-08-15T08:33:00,75s,2.16
2022-08-15T08:34:00,75s,12.75
2022-08-15T08:35:00,75s,12.52
2022-08-15T08:36:00,75s,12.50
2022-08-15T08:37:00,75s,12.88
2022-08-15T08:38:00,75s,12.55
2022-08-15T08:39:00,75s,12.53
2022-08-15T08:40:00,75s,12.63
2022-08-15T08:41:00,75s,12.92
2022-08-15T08:42:00,75s,12.96
2022-08-15T08:43:00,75s,13.33
2022-08-15T08:44:00,75s,18.56
2022-08-15T08:45:00,75s,18.42
2022-08-15T08:46:00,75s,18.39
2022-08-15T08:47:00,75s,18.32
2022-08-15T08:48:00,75s,12.69
2022-08-15T08:49:00,75s,12.71
2022-08-15T08:50:00,75s,12.73
2022-08-15T08:51:00,75s,12.85
2022-08-15T08:52:00,75s,12.78
2022-08-15T08:53:00,75s,13.18
2022-08-15T08:54:00,75s,13.61
2022-08-15T08:55:00,75s,13.29
2022-08-15T08:56:00,75s,13.37
2022-08-15T08:57:00,75s,13.42
2022-08-15T08:58:00,75s,2.84
2022-08-15T08:59:00,75s,2.84
2022-08-15T09:00:00,75s,2.75
2022-08-15T09:01:00,75s,2.96
2022-08-15T09:02:00,75s,2.60
2022-08-15T09:03:00,75s,2.55
2022-08-15T09:04:00,75s,2.54
2022-08-15T09:05:00,75s,2.53
2022-08-15T09:06:00,75s,2.61
2022-08-15T09:07:00,75s,13.10
2022-08-15T09:08:00,75s,12.80
2022-08-15T09:09:00,75s,12.78
2022-08-15T09:10:00,75s,12.85
2022-08-15T09:11:00,75s,12.79
2022-08-15T09:12:00,75s,12.89
2022-08-15T09:13:00,75s,12.90
2022-08-15T09:14:00,75s,12.97
2022-08-15T09:15:00,75s,12.98
2022-08-15T09:16:00,75s,13.04
2022-08-15T09:17:00,75s,18.57
2022-08-15T09:18:00,75s,18.71
2022-08-15T09:19:00,75s,18.62
2022-08-15T09:20:00,75s,18.71
2022-08-15T09:21:00,75s,18.64
2022-08-15T09:22:00,75s,18.65
2022-08-15T09:23:00,75s,18.73
2022-08-15T09:24:00,75s,18.62
2022-08-15T09:25:00,75s,18.62
2022-08-15T09:26:00,75s,18.88
2022-08-15T09:27:00,75s,19.00
2022-08-15T09:28:00,75s,19.11
2022-08-15T09:29:00,75s,20.87
2022-08-15T09:30:00,75s,21.66
2022-08-15T09:31:00,75s,22.90
2022-08-15T09:32:00,75s,23.41
2022-08-15T09:33:00,75s,23.39
2022-08-15T09:34:00,75s,22.72
2022-08-15T09:35:00,75s,23.73
2022-08-15T09:36:00,75s,23.95
2022-08-15T09:37:00,75s,24.11
2022-08-15T09:38:00,75s,24.60
2022-08-15T09:39:00,75s,24.80
2022-08-15T09:40:00,75s,25.02
2022-08-15T09:41:00,75s,25.16
2022-08-15T09:42:00,75s,25.39
2022-08-15T09:43:00,75s,25.54
2022-08-15T09:44:00,75s,25.49
2022-08-15T09:45:00,75s,25.54
2022-08-15T09:46:00,75s,26.08
2022-08-15T09:47:00,75s,24.55
2022-08-15T09:48:00,75s,24.76
2022-08-15T09:49:00,75s,24.85
2022-08-15T09:50:00,75s,24.96
2022-08-15T09:51:00,75s,25.03
2022-08-15T09:52:00,75s,25.46
2022-08-15T09:53:00,75s,25.34
2022-08-15T09:54:00,75s,25.77
2022-08-15T09:55:00,75s,25.78
2022-08-15T09:56:00,75s,25.76
2022-08-15T09:57:00,75s,26.48
2022-08-15T09:58:00,75s,26.19
2022-08-15T09:59:00,75s,26.43
2022-08-15T10:00:00,75s,26.57
2022-08-15T10:01:00,75s,26.77
2022-08-15T10:02:00,75s,26.84
2022-08-15T10:03:00,75s,27.15
2022-08-15T10:04:00,75s,27.23
2022-08-15T10:05:00,75s,27.20
2022-08-15T10:06:00,75s,27.24
2022-08-15T10:07:00,75s,36.29
2022-08-15T10:08:00,75s,36.02
2022-08-15T10:09:00,75s,35.97
2022-08-15T10:10:00,75s,35.89
2022-08-15T10:11:00,75s,36.04
2022-08-15T10:12:00,75s,35.98
2022-08-15T10:13:00,75s,27.88
2022-08-15T10:14:00,75s,27.47
2022-08-15T10:15:00,75s,27.35
2022-08-15T10:16:00,75s,27.14
2022-08-15T10:17:00,75s,27.36
2022-08-15T10:18:00,75s,27.15
2022-08-15T10:19:00,75s,27.87
2022-08-15T10:20:00,75s,27.20
2022-08-15T10:21:00,75s,27.74
2022-08-15T10:22:00,75s,27.25
2022-08-15T10:23:00,75s,27.57
2022-08-15T10:24:00,75s,27.76
2022-08-15T10:25:00,75s,27.57
2022-08-15T10:26:00,75s,27.38
2022-08-15T10:27:00,75s,27.30
2022-08-15T10:28:00,75s,27.31
2022-08-15T10:29:00,75s,27.15
2022-08-15T10:30:00,75s,27.08
2022-08-15T10:31:00,75s,27.30
2022-08-15T10:32:00,75s,26.81
2022-08-15T10:33:00,75s,26.91
2022-08-15T10:34:00,75s,26.96
2022-08-15T10:35:00,75s,26.90
2022-08-15T10:36:00,75s,26.97
2022-08-15T10:37:00,75s,26.88
2022-08-15T10:38:00,75s,27.03
2022-08-15T10:39:00,75s,26.87
2022-08-15T10:40:00,75s,26.96
2022-08-15T10:41:00,75s,27.17
2022-08-15T10:42:00,75s,26.96
2022-08-15T10:43:00,75s,27.49
2022-08-15T10:44:00,75s,27.38
2022-08-15T10:45:00,75s,27.03
2022-08-15T10:46:00,75s,27.09
2022-08-15T10:47:00,75s,27.41
2022-08-15T10:48:00,75s,27.31
2022-08-15T10:49:00,75s,27.40
2022-08-15T10:50:00,75s,27.23
2022-08-15T10:51:00,75s,27.35
2022-08-15T10:52:00,75s,27.30
2022-08-15T10:53:00,75s,27.09
2022-08-15T10:54:00,75s,27.11
2022-08-15T10:55:00,75s,27.02
2022-08-15T10:56:00,75s,27.56
2022-08-15T10:57:00,75s,26.76
2022-08-15T10:58:00,75s,26.95
2022-08-15T10:59:00,75s,27.03
2022-08-15T11:00:00,75s,21.48
2022-08-15T11:01:00,75s,24.95
2022-08-15T11:02:00,75s,20.58
2022-08-15T11:03:00,75s,20.57
2022-08-15T11:04:00,75s,20.60
2022-08-15T11:05:00,75s,20.53
2022-08-15T11:06:00,75s,20.82
2022-08-15T11:07:00,75s,20.62
2022-08-15T11:08:00,75s,20.49
2022-08-15T11:09:00,75s,20.37
2022-08-15T11:10:00,75s,20.62
2022-08-15T11:11:00,75s,20.69
2022-08-15T11:12:00,75s,20.51
2022-08-15T11:13:00,75s,23.48
2022-08-15T11:14:00,75s,25.13
2022-08-15T11:15:00,75s,25.94
2022-08-15T11:16:00,75s,22.86
2022-08-15T11:17:00,75s,25.62
2022-08-15T11:18:00,75s,25.44
2022-08-15T11:19:00,75s,25.58
2022-08-15T11:20:00,75s,25.38
2022-08-15T11:21:00,75s,25.54
2022-08-15T11:22:00,75s,25.58
2022-08-15T11:23:00,75s,25.84
2022-08-15T11:24:00,75s,25.30
2022-08-15T11:25:00,75s,25.67
2022-08-15T11:26:00,75s,26.72
2022-08-15T11:27:00,75s,26.12
2022-08-15T11:28:00,75s,25.98
2022-08-15T11:29:00,75s,26.40
2022-08-15T11:30:00,75s,26.25
2022-08-15T11:31:00,75s,26.50
2022-08-15T11:32:00,75s,26.48
2022-08-15T11:33:00,75s,25.91
2022-08-15T11:34:00,75s,25.66
2022-08-15T11:35:00,75s,25.47
2022-08-15T11:36:00,75s,24.48
2022-08-15T11:37:00,75s,23.29
2022-08-15T11:38:00,75s,22.09
2022-08-15T11:39:00,75s,20.21
2022-08-15T11:40:00,75s,20.59
2022-08-15T11:41:00,75s,23.18
2022-08-15T11:42:00,75s,19.92
2022-08-15T11:43:00,75s,20.40
2022-08-15T11:44:00,75s,20.09
2022-08-15T11:45:00,75s,20.02
2022-08-15T11:46:00,75s,20.57
2022-08-15T11:47:00,75s,20.01
2022-08-15T11:48:00,75s,19.95
2022-08-15T11:49:00,75s,19.92
2022-08-15T11:50:00,75s,20.05
2022-08-15T11:51:00,75s,20.39
2022-08-15T11:52:00,75s,20.20
2022-08-15T11:53:00,75s,20.31
2022-08-15T11:54:00,75s,20.40
2022-08-15T11:55:00,75s,20.21
2022-08-15T11:56:00,75s,20.31
2022-08-15T11:57:00,75s,20.29
2022-08-15T11:58:00,75s,20.37
2022-08-15T11:59:00,75s,20.29
2022-08-15T12:00:00,75s,20.43
2022-08-15T12:01:00,75s,20.25
2022-08-15T12:02:00,75s,20.38
2022-08-15T12:03:00,75s,20.38
2022-08-15T12:04:00,75s,20.49
2022-08-15T12:05:00,75s,21.39
2022-08-15T12:06:00,75s,23.48
2022-08-15T12:07:00,75s,25.50
2022-08-15T12:08:00,75s,26.95
2022-08-15T12:09:00,75s,27.44
2022-08-15T12:10:00,75s,27.52
2022-08-15T12:11:00,75s,27.70
2022-08-15T12:12:00,75s,27.75
2022-08-15T12:13:00,75s,27.77
2022-08-15T12:14:00,75s,27.86
2022-08-15T12:15:00,75s,27.94
2022-08-15T12:16:00,75s,27.80
2022-08-15T12:17:00,75s,28.40
2022-08-15T12:18:00,75s,28.53
2022-08-15T12:19:00,75s,28.05
2022-08-15T12:20:00,75s,27.94
2022-08-15T12:21:00,75s,27.83
2022-08-15T12:22:00,75s,27.68
2022-08-15T12:23:00,75s,27.67
2022-08-15T12:24:00,75s,27.71
2022-08-15T12:25:00,75s,28.16
2022-08-15T12:26:00,75s,27.79
2022-08-15T12:27:00,75s,27.64
2022-08-15T12:28:00,75s,27.58
2022-08-15T12:29:00,75s,27.58
2022-08-15T12:30:00,75s,27.62
2022-08-15T12:31:00,75s,27.56
2022-08-15T12:32:00,75s,27.75
2022-08-15T12:33:00,75s,27.77
2022-08-15T12:34:00,75s,27.64
2022-08-15T12:35:00,75s,27.37
2022-08-15T12:36:00,75s,27.26
2022-08-15T12:37:00,75s,27.34
2022-08-15T12:38:00,75s,27.37
2022-08-15T12:39:00,75s,28.26
2022-08-15T12:40:00,75s,27.57
2022-08-15T12:41:00,75s,27.37
2022-08-15T12:42:00,75s,27.48
2022-08-15T12:43:00,75s,27.19
2022-08-15T12:44:00,75s,27.34
2022-08-15T12:45:00,75s,26.76
2022-08-15T12:46:00,75s,24.54
2022-08-15T12:47:00,75s,27.35
2022-08-15T12:48:00,75s,26.81
2022-08-15T12:49:00,75s,20.91
2022-08-15T12:50:00,75s,24.67
2022-08-15T12:51:00,75s,20.76
2022-08-15T12:52:00,75s,20.76
2022-08-15T12:53:00,75s,20.60
2022-08-15T12:54:00,75s,20.43
2022-08-15T12:55:00,75s,20.98
2022-08-15T12:56:00,75s,20.61
2022-08-15T12:57:00,75s,20.87
2022-08-15T12:58:00,75s,21.01
2022-08-15T12:59:00,75s,23.02
2022-08-15T13:00:00,75s,25.02
2022-08-15T13:01:00,75s,26.58
2022-08-15T13:02:00,75s,27.57
2022-08-15T13:03:00,75s,27.57
2022-08-15T13:04:00,75s,27.48
2022-08-15T13:05:00,75s,27.42
2022-08-15T13:06:00,75s,27.48
2022-08-15T13:07:00,75s,27.85
2022-08-15T13:08:00,75s,27.60
2022-08-15T13:09:00,75s,27.73
2022-08-15T13:10:00,75s,27.66
2022-08-15T13:11:00,75s,27.65
2022-08-15T13:12:00,75s,27.48
2022-08-15T13:13:00,75s,27.39
2022-08-15T13:14:00,75s,27.50
2022-08-15T13:15:00,75s,28.09
2022-08-15T13:16:00,75s,27.43
2022-08-15T13:17:00,75s,27.41
2022-08-15T13:18:00,75s,27.28
2022-08-15T13:19:00,75s,27.67
2022-08-15T13:20:00,75s,27.44
2022-08-15T13:21:00,75s,26.86
2022-08-15T13:22:00,75s,27.15
2022-08-15T13:23:00,75s,26.98
2022-08-15T13:24:00,75s,27.05
2022-08-15T13:25:00,75s,26.78
2022-08-15T13:26:00,75s,26.15
2022-08-15T13:27:00,75s,25.98
2022-08-15T13:28:00,75s,25.94
2022-08-15T13:29:00,75s,25.82
2022-08-15T13:30:00,75s,25.09
2022-08-15T13:31:00,75s,20.28
2022-08-15T13:32:00,75s,20.17
2022-08-15T13:33:00,75s,20.11
2022-08-15T13:34:00,75s,20.09
2022-08-15T13:35:00,75s,20.25
2022-08-15T13:36:00,75s,19.99
2022-08-15T13:37:00,75s,20.02
2022-08-15T13:38:00,75s,19.96
2022-08-15T13:39:00,75s,19.99
2022-08-15T13:40:00,75s,19.96
2022-08-15T13:41:00,75s,20.00
2022-08-15T13:42:00,75s,20.46
2022-08-15T13:43:00,75s,20.16
2022-08-15T13:44:00,75s,20.19
2022-08-15T13:45:00,75s,20.38
2022-08-15T13:46:00,75s,20.12
2022-08-15T13:47:00,75s,20.72
2022-08-15T13:48:00,75s,20.57
2022-08-15T13:49:00,75s,20.05
2022-08-15T13:50:00,75s,20.08
2022-08-15T13:51:00,75s,20.09
2022-08-15T13:52:00,75s,21.16
2022-08-15T13:53:00,75s,22.77
2022-08-15T13:54:00,75s,24.30
2022-08-15T13:55:00,75s,25.96
2022-08-15T13:56:00,75s,25.89
2022-08-15T13:57:00,75s,25.77
2022-08-15T13:58:00,75s,25.63
2022-08-15T13:59:00,75s,25.44
2022-08-15T14:00:00,75s,25.71
2022-08-15T14:01:00,75s,25.77
2022-08-15T14:02:00,75s,25.65
2022-08-15T14:03:00,75s,25.66
2022-08-15T14:04:00,75s,25.41
2022-08-15T14:05:00,75s,25.37
2022-08-15T14:06:00,75s,25.37
2022-08-15T14:07:00,75s,25.47
2022-08-15T14:08:00,75s,25.80
2022-08-15T14:09:00,75s,25.75
2022-08-15T14:10:00,75s,25.64
2022-08-15T14:11:00,75s,25.84
2022-08-15T14:12:00,75s,26.11
2022-08-15T14:13:00,75s,26.25
2022-08-15T14:14:00,75s,26.74
2022-08-15T14:15:00,75s,25.55
2022-08-15T14:16:00,75s,25.99
2022-08-15T14:17:00,75s,26.07
2022-08-15T14:18:00,75s,26.00
2022-08-15T14:19:00,75s,25.44
2022-08-15T14:20:00,75s,23.82
2022-08-15T14:21:00,75s,24.02
2022-08-15T14:22:00,75s,23.80
2022-08-15T14:23:00,75s,23.45
2022-08-15T14:24:00,75s,23.62
2022-08-15T14:25:00,75s,24.01
2022-08-15T14:26:00,75s,25.31
2022-08-15T14:27:00,75s,25.59
2022-08-15T14:28:00,75s,25.33
2022-08-15T14:29:00,75s,24.12
2022-08-15T14:30:00,75s,23.26
2022-08-15T14:31:00,75s,22.18
2022-08-15T14:32:00,75s,21.29
2022-08-15T14:33:00,75s,21.19
2022-08-15T14:34:00,75s,21.15
2022-08-15T14:35:00,75s,21.20
2022-08-15T14:36:00,75s,20.99
2022-08-15T14:37:00,75s,21.29
2022-08-15T14:38:00,75s,21.27
2022-08-15T14:39:00,75s,21.36
2022-08-15T14:40:00,75s,21.45
2022-08-15T14:41:00,75s,21.36
2022-08-15T14:42:00,75s,21.64
2022-08-15T14:43:00,75s,21.50
2022-08-15T14:44:00,75s,21.15
2022-08-15T14:45:00,75s,21.28
2022-08-15T14:46:00,75s,23.16
2022-08-15T14:47:00,75s,24.86
2022-08-15T14:48:00,75s,26.38
2022-08-15T14:49:00,75s,27.36
2022-08-15T14:50:00,75s,27.80
2022-08-15T14:51:00,75s,27.26
2022-08-15T14:52:00,75s,27.46
2022-08-15T14:53:00,75s,27.34
2022-08-15T14:54:00,75s,27.36
2022-08-15T14:55:00,75s,27.04
2022-08-15T14:56:00,75s,27.16
2022-08-15T14:57:00,75s,27.15
2022-08-15T14:58:00,75s,27.35
2022-08-15T14:59:00,75s,26.81
2022-08-15T15:00:00,75s,27.12
2022-08-15T15:01:00,75s,27.17
2022-08-15T15:02:00,75s,27.51
2022-08-15T15:03:00,75s,27.20
2022-08-15T15:04:00,75s,27.63
2022-08-15T15:05:00,75s,27.52
2022-08-15T15:06:00,75s,27.38
2022-08-15T15:07:00,75s,27.25
2022-08-15T15:08:00,75s,27.23
2022-08-15T15:09:00,75s,27.27
2022-08-15T15:10:00,75s,27.34
2022-08-15T15:11:00,75s,27.21
2022-08-15T15:12:00,75s,27.41
2022-08-15T15:13:00,75s,27.36
2022-08-15T15:14:00,75s,28.03
2022-08-15T15:15:00,75s,27.81
2022-08-15T15:16:00,75s,27.39
2022-08-15T15:17:00,75s,27.23
2022-08-15T15:18:00,75s,27.00
2022-08-15T15:19:00,75s,27.16
2022-08-15T15:20:00,75s,27.47
2022-08-15T15:21:00,75s,27.73
2022-08-15T15:22:00,75s,27.49
2022-08-15T15:23:00,75s,26.92
2022-08-15T15:24:00,75s,24.99
2022-08-15T15:25:00,75s,23.88
2022-08-15T15:26:00,75s,21.20
2022-08-15T15:27:00,75s,20.98
2022-08-15T15:28:00,75s,20.94
2022-08-15T15:29:00,75s,21.09
2022-08-15T15:30:00,75s,21.08
2022-08-15T15:31:00,75s,20.91
2022-08-15T15:32:00,75s,20.96
2022-08-15T15:33:00,75s,20.91
2022-08-15T15:34:00,75s,20.99
2022-08-15T15:35:00,75s,20.92
2022-08-15T15:36:00,75s,20.90
2022-08-15T15:37:00,75s,20.77
2022-08-15T15:38:00,75s,20.86
2022-08-15T15:39:00,75s,22.00
2022-08-15T15:40:00,75s,23.93
2022-08-15T15:41:00,75s,25.49
2022-08-15T15:42:00,75s,26.58
2022-08-15T15:43:00,75s,26.53
2022-08-15T15:44:00,75s,26.79
2022-08-15T15:45:00,75s,26.48
2022-08-15T15:46:00,75s,26.44
2022-08-15T15:47:00,75s,26.50
2022-08-15T15:48:00,75s,26.59
2022-08-15T15:49:00,75s,26.56
2022-08-15T15:50:00,75s,26.48
2022-08-15T15:51:00,75s,25.96
2022-08-15T15:52:00,75s,25.68
2022-08-15T15:53:00,75s,25.62
2022-08-15T15:54:00,75s,25.53
2022-08-15T15:55:00,75s,25.86
2022-08-15T15:56:00,75s,25.79
2022-08-15T15:57:00,75s,21.78
2022-08-15T15:58:00,75s,24.32
2022-08-15T15:59:00,75s,22.27
2022-08-15T16:00:00,75s,20.88
2022-08-15T16:01:00,75s,20.34
2022-08-15T16:02:00,75s,20.38
2022-08-15T16:03:00,75s,20.43
2022-08-15T16:04:00,75s,20.42
2022-08-15T16:05:00,75s,20.32
2022-08-15T16:06:00,75s,20.34
2022-08-15T16:07:00,75s,20.71
2022-08-15T16:08:00,75s,20.34
2022-08-15T16:09:00,75s,20.39
2022-08-15T16:10:00,75s,20.34
2022-08-15T16:11:00,75s,20.28
2022-08-15T16:12:00,75s,20.30
2022-08-15T16:13:00,75s,20.22
2022-08-15T16:14:00,75s,20.26
2022-08-15T16:15:00,75s,20.25
2022-08-15T16:16:00,75s,20.22
2022-08-15T16:17:00,75s,20.32
2022-08-15T16:18:00,75s,20.15
2022-08-15T16:19:00,75s,29.35
2022-08-15T16:20:00,75s,29.15
2022-08-15T16:21:00,75s,29.02
2022-08-15T16:22:00,75s,28.91
2022-08-15T16:23:00,75s,28.68
2022-08-15T16:24:00,75s,29.28
2022-08-15T16:25:00,75s,14.22
2022-08-15T16:26:00,75s,14.24
2022-08-15T16:27:00,75s,14.22
2022-08-15T16:28:00,75s,14.19
2022-08-15T16:29:00,75s,14.20
2022-08-15T16:30:00,75s,14.53
2022-08-15T16:31:00,75s,14.30
2022-08-15T16:32:00,75s,14.63
2022-08-15T16:33:00,75s,14.52
2022-08-15T16:34:00,75s,14.82
2022-08-15T16:35:00,75s,14.55
2022-08-15T16:36:00,75s,14.41
2022-08-15T16:37:00,75s,14.49
2022-08-15T16:38:00,75s,14.48
2022-08-15T16:39:00,75s,14.47
2022-08-15T16:40:00,75s,14.74
2022-08-15T16:41:00,75s,14.86
2022-08-15T16:42:00,75s,14.53
2022-08-15T16:43:00,75s,20.17
2022-08-15T16:44:00,75s,20.30
2022-08-15T16:45:00,75s,20.37
2022-08-15T16:46:00,75s,20.56
2022-08-15T16:47:00,75s,20.51
2022-08-15T16:48:00,75s,20.65
2022-08-15T16:49:00,75s,20.97
2022-08-15T16:50:00,75s,21.02
2022-08-15T16:51:00,75s,21.18
2022-08-15T16:52:00,75s,21.20
2022-08-15T16:53:00,75s,21.06
2022-08-15T16:54:00,75s,21.01
2022-08-15T16:55:00,75s,21.06
2022-08-15T16:56:00,75s,21.09
2022-08-15T16:57:00,75s,20.93
2022-08-15T16:58:00,75s,20.78
2022-08-15T16:59:00,75s,20.86
2022-08-15T17:00:00,75s,20.87
2022-08-15T17:01:00,75s,20.87
2022-08-15T17:02:00,75s,20.88
2022-08-15T17:03:00,75s,21.31
2022-08-15T17:04:00,75s,21.37
2022-08-15T17:05:00,75s,21.36
2022-08-15T17:06:00,75s,21.49
2022-08-15T17:07:00,75s,21.39
2022-08-15T17:08:00,75s,21.42
2022-08-15T17:09:00,75s,21.86
2022-08-15T17:10:00,75s,23.53
2022-08-15T17:11:00,75s,25.23
2022-08-15T17:12:00,75s,26.67
2022-08-15T17:13:00,75s,27.07
2022-08-15T17:14:00,75s,26.98
2022-08-15T17:15:00,75s,26.87
2022-08-15T17:16:00,75s,26.83
2022-08-15T17:17:00,75s,26.97
2022-08-15T17:18:00,75s,26.53
2022-08-15T17:19:00,75s,26.48
2022-08-15T17:20:00,75s,26.56
2022-08-15T17:21:00,75s,26.75
2022-08-15T17:22:00,75s,26.30
2022-08-15T17:23:00,75s,26.20
2022-08-15T17:24:00,75s,25.96
2022-08-15T17:25:00,75s,25.93
2022-08-15T17:26:00,75s,25.82
2022-08-15T17:27:00,75s,25.74
2022-08-15T17:28:00,75s,25.67
2022-08-15T17:29:00,75s,25.60
2022-08-15T17:30:00,75s,25.63
2022-08-15T17:31:00,75s,25.62
2022-08-15T17:32:00,75s,25.39
2022-08-15T17:33:00,75s,25.48
2022-08-15T17:34:00,75s,23.68
2022-08-15T17:35:00,75s,22.38
2022-08-15T17:36:00,75s,20.69
2022-08-15T17:37:00,75s,20.52
2022-08-15T17:38:00,75s,20.54
2022-08-15T17:39:00,75s,20.73
2022-08-15T17:40:00,75s,20.53
2022-08-15T17:41:00,75s,20.47
2022-08-15T17:42:00,75s,20.44
2022-08-15T17:43:00,75s,20.34
2022-08-15T17:44:00,75s,20.59
2022-08-15T17:45:00,75s,20.32
2022-08-15T17:46:00,75s,20.28
2022-08-15T17:47:00,75s,20.27
2022-08-15T17:48:00,75s,20.30
2022-08-15T17:49:00,75s,20.43
2022-08-15T17:50:00,75s,20.84
2022-08-15T17:51:00,75s,20.55
2022-08-15T17:52:00,75s,20.52
2022-08-15T17:53:00,75s,20.52
2022-08-15T17:54:00,75s,20.32
2022-08-15T17:55:00,75s,20.79
2022-08-15T17:56:00,75s,20.27
2022-08-15T17:57:00,75s,20.29
2022-08-15T17:58:00,75s,20.59
2022-08-15T17:59:00,75s,20.19
2022-08-15T18:00:00,75s,20.23
2022-08-15T18:01:00,75s,20.32
2022-08-15T18:02:00,75s,20.58
2022-08-15T18:03:00,75s,21.69
2022-08-15T18:04:00,75s,23.12
2022-08-15T18:05:00,75s,24.51
2022-08-15T18:06:00,75s,25.47
2022-08-15T18:07:00,75s,26.30
2022-08-15T18:08:00,75s,26.53
2022-08-15T18:09:00,75s,26.44
2022-08-15T18:10:00,75s,26.31
2022-08-15T18:11:00,75s,26.01
2022-08-15T18:12:00,75s,25.85
2022-08-15T18:13:00,75s,26.05
2022-08-15T18:14:00,75s,26.08
2022-08-15T18:15:00,75s,25.44
2022-08-15T18:16:00,75s,25.06
2022-08-15T18:17:00,75s,24.78
2022-08-15T18:18:00,75s,24.36
2022-08-15T18:19:00,75s,22.27
2022-08-15T18:20:00,75s,19.96
2022-08-15T18:21:00,75s,19.87
2022-08-15T18:22:00,75s,20.06
2022-08-15T18:23:00,75s,19.86
2022-08-15T18:24:00,75s,19.85
2022-08-15T18:25:00,75s,19.75
2022-08-15T18:26:00,75s,19.71
2022-08-15T18:27:00,75s,19.60
2022-08-15T18:28:00,75s,19.52
2022-08-15T18:29:00,75s,19.90
2022-08-15T18:30:00,75s,19.59
2022-08-15T18:31:00,75s,14.02
2022-08-15T18:32:00,75s,14.19
2022-08-15T18:33:00,75s,14.01
2022-08-15T18:34:00,75s,14.17
2022-08-15T18:35:00,75s,14.13
2022-08-15T18:36:00,75s,14.64
2022-08-15T18:37:00,75s,14.17
2022-08-15T18:38:00,75s,14.10
2022-08-15T18:39:00,75s,14.10
2022-08-15T18:40:00,75s,14.34
2022-08-15T18:41:00,75s,14.03
2022-08-15T18:42:00,75s,13.97
2022-08-15T18:43:00,75s,14.00
2022-08-15T18:44:00,75s,14.07
2022-08-15T18:45:00,75s,14.28
2022-08-15T18:46:00,75s,14.33
2022-08-15T18:47:00,75s,13.91
2022-08-15T18:48:00,75s,3.09
2022-08-15T18:49:00,75s,2.84
2022-08-15T18:50:00,75s,2.94
2022-08-15T18:51:00,75s,3.25
2022-08-15T18:52:00,75s,2.92
2022-08-15T18:53:00,75s,2.92
2022-08-15T18:54:00,75s,2.97
2022-08-15T18:55:00,75s,2.88
2022-08-15T18:56:00,75s,2.87
2022-08-15T18:57:00,75s,2.98
2022-08-15T18:58:00,75s,13.91
2022-08-15T18:59:00,75s,13.86
2022-08-15T19:00:00,75s,13.60
2022-08-15T19:01:00,75s,13.64
2022-08-15T19:02:00,75s,13.64
2022-08-15T19:03:00,75s,13.61
2022-08-15T19:04:00,75s,13.63
2022-08-15T19:05:00,75s,13.71
2022-08-15T19:06:00,75s,13.71
2022-08-15T19:07:00,75s,13.68
2022-08-15T19:08:00,75s,25.23
2022-08-15T19:09:00,75s,25.72
2022-08-15T19:10:00,75s,25.13
2022-08-15T19:11:00,75s,23.88
2022-08-15T19:12:00,75s,19.46
2022-08-15T19:13:00,75s,19.44
2022-08-15T19:14:00,75s,19.41
2022-08-15T19:15:00,75s,19.39
2022-08-15T19:16:00,75s,19.38
2022-08-15T19:17:00,75s,19.48
2022-08-15T19:18:00,75s,19.71
2022-08-15T19:19:00,75s,19.56
2022-08-15T19:20:00,75s,19.71
2022-08-15T19:21:00,75s,19.76
2022-08-15T19:22:00,75s,19.78
2022-08-15T19:23:00,75s,19.75
2022-08-15T19:24:00,75s,19.82
2022-08-15T19:25:00,75s,19.78